Location: Waco, TX
(31.5480°N, 97.1670°W)
Time: 21:59:43
(UTC-06:00)

ISS - Pass Details

Date: 10 November 2017
Orbit: 401 x 407 km, 51.6° (Epoch: 25 November)

Event Time Altitude Azimuth Distance (km) Brightness Sun altitude
Rises 01:49:20 0° 250° (WSW) 2,306 - -63.8°
Reaches altitude 10° 01:51:39 10° 265° (W) 1,449 - -63.4°
Maximum altitude 01:54:22 24° 322° (NW) 877 - -62.9°
Drops below altitude 10° 01:57:06 10° 19° (NNE) 1,452 - -62.3°
Sets 01:59:26 0° 33° (NNE) 2,313 - -61.9°
